Tracking 30995 objects as of 5-Jul-2025
HD Live streaming from Space Station
objects crossing your sky now

STARLINK-5598

Track STARLINK-5598 now!
10-day predictions
STARLINK-5598 is classified as:


NORAD ID: 55421
Int'l Code: 2023-014AG
Perigee: 577.1 km
Apogee: 581.3 km
Inclination: 70.0 °
Period: 96.1 minutes
Semi major axis: 6950 km
RCS: Unknown
Launch date: January 31, 2023
Source: United States (US)
Launch site: AIR FORCE WESTERN TEST RANGE (AFWTR)
Your satellite tracking list
STARLINK-3938
Track 1 satellite(s)




NASA's NSSDC Master Catalog

Two Line Element Set (TLE):
1 55421U 23014AG  25186.55151365  .00000421  00000-0  43102-4 0  9991
2 55421  70.0005 347.5652 0003018 267.8114  92.2700 14.98328434134547
Source of the keplerian elements: AFSPC